,,Stat6,,Stat2,,Stat8,,Stat9,,Stat10,,Wind1,,Wind1,
time,status,PA1M_AVG,status,PR1M_SUM,status,RH1M_AVG,status,SR1M_AVG,status,TA1M_AVG,status,W1dAve1m,status,W1sAve1m,
2004-07-27, 00:00:01,VALID,917.91,VALID,0,VALID,98.2798,VALID,-0.0509425,VALID,20.8539,VALID,18,VALID,1.07919,
2004-07-27, 00:01:00,VALID,917.889,VALID,0,VALID,98.2454,VALID,-0.0339617,VALID,20.8601,VALID,6,VALID,1.08794,
2004-07-27, 00:02:00,VALID,917.888,VALID,0,VALID,98.145,VALID,0,VALID,20.8375,VALID,355,VALID,0.955669,
2004-07-27, 00:03:00,VALID,917.865,VALID,0,VALID,98.2302,VALID,-0.0509425,VALID,20.8146,VALID,360,VALID,0.916788,
2004-07-27, 00:04:00,VALID,917.844,VALID,0,VALID,98.3459,VALID,-0.0169808,VALID,20.8186,VALID,11,VALID,0.846912,
2004-07-27, 00:05:00,VALID,917.826,VALID,0,VALID,98.4718,VALID,-0.0679233,VALID,20.8251,VALID,15,VALID,0.401486,
2004-07-27, 00:06:00,VALID,917.804,VALID,0,VALID,98.5036,VALID,-0.0509425,VALID,20.838,VALID,11,VALID,0.902734,
2004-07-27, 00:07:01,VALID,917.776,VALID,0,VALID,98.4451,VALID,-0.101885,VALID,20.8318,VALID,18,VALID,1.33878,
2004-07-27, 00:08:00,VALID,917.784,VALID,0,VALID,98.5583,VALID,0.0509425,VALID,20.8399,VALID,13,VALID,1.01094,
2004-07-27, 00:09:00,VALID,917.776,VALID,0,VALID,98.5341,VALID,0.0339617,VALID,20.8429,VALID,8,VALID,0.980945,
2004-07-27, 00:10:01,VALID,917.766,VALID,0,VALID,98.515,VALID,0.0339617,VALID,20.8429,VALID,19,VALID,1.17038,
2004-07-27, 00:11:01,VALID,917.749,VALID,0,VALID,98.5532,VALID,0.0169808,VALID,20.8459,VALID,22,VALID,0.924592,
2004-07-27, 00:12:01,VALID,917.732,VALID,0,VALID,98.5328,VALID,0.0679233,VALID,20.8623,VALID,24,VALID,0.954861,
2004-07-27, 00:13:00,VALID,917.707,VALID,0,VALID,98.426,VALID,0.0339617,VALID,20.8717,VALID,17,VALID,0.515053,
2004-07-27, 00:14:00,VALID,917.681,VALID,0,VALID,98.3993,VALID,0.0339617,VALID,20.8814,VALID,16,VALID,0.653392,
2004-07-27, 00:15:01,VALID,917.638,VALID,0,VALID,98.4196,VALID,0.0849042,VALID,20.8876,VALID,16,VALID,0.443359,
2004-07-27, 00:16:01,VALID,917.612,VALID,0,VALID,98.3154,VALID,0.0679233,VALID,20.8881,VALID,17,VALID,0.401526,
2004-07-27, 00:17:00,VALID,917.593,VALID,0,VALID,98.2556,VALID,0.0339617,VALID,20.8914,VALID,13,VALID,0.639509,
2004-07-27, 00:18:00,VALID,917.573,VALID,0,VALID,98.3065,VALID,0.0679233,VALID,20.8782,VALID,8,VALID,0.615663,
2004-07-27, 00:19:00,VALID,917.573,VALID,0,VALID,98.2696,VALID,0.0509425,VALID,20.8653,VALID,8,VALID,0.96766,
2004-07-27, 00:20:00,VALID,917.568,VALID,0,VALID,98.3357,VALID,0.0169808,VALID,20.8618,VALID,14,VALID,0.983648,
2004-07-27, 00:21:00,VALID,917.567,VALID,0,VALID,98.379,VALID,0.0169808,VALID,20.8881,VALID,15,VALID,1.01935,
2004-07-27, 00:22:01,VALID,917.55,VALID,0,VALID,98.3802,VALID,0.0509425,VALID,20.8981,VALID,21,VALID,0.923874,
2004-07-27, 00:23:00,VALID,917.549,VALID,0,VALID,98.3192,VALID,0.0679233,VALID,20.9105,VALID,21,VALID,1.08403,
2004-07-27, 00:24:00,VALID,917.537,VALID,0,VALID,98.3395,VALID,0.0849042,VALID,20.9301,VALID,24,VALID,0.800391,
2004-07-27, 00:25:00,VALID,917.529,VALID,0,VALID,98.3294,VALID,0.0339617,VALID,20.9627,VALID,28,VALID,0.365371,
2004-07-27, 00:26:01,VALID,917.516,VALID,0,VALID,98.2607,VALID,0.0509425,VALID,20.9751,VALID,27,VALID,0.569531,
2004-07-27, 00:27:00,VALID,917.509,VALID,0,VALID,98.2531,VALID,0.0339617,VALID,20.9912,VALID,24,VALID,0.799851,
2004-07-27, 00:28:01,VALID,917.5,VALID,0,VALID,98.173,VALID,0.0849042,VALID,20.991,VALID,351,VALID,0.504764,
2004-07-27, 00:29:00,VALID,917.494,VALID,0,VALID,98.1081,VALID,0.0509425,VALID,21.0079,VALID,16,VALID,0.844893,
2004-07-27, 00:30:00,VALID,917.492,VALID,0,VALID,98.0979,VALID,0.0339617,VALID,21.0012,VALID,13,VALID,0.350391,
2004-07-27, 00:31:00,VALID,917.491,VALID,0,VALID,98.0636,VALID,0.0339617,VALID,21.0109,VALID,16,VALID,0.974144,
2004-07-27, 00:32:01,VALID,917.489,VALID,0,VALID,98.0471,VALID,0.0169808,VALID,20.9945,VALID,15,VALID,0.906432,
2004-07-27, 00:33:00,VALID,917.494,VALID,0,VALID,98.0852,VALID,0.0169808,VALID,21.0079,VALID,25,VALID,0.763148,
2004-07-27, 00:34:00,VALID,917.498,VALID,0,VALID,98.07,VALID,0.0339617,VALID,21.0111,VALID,24,VALID,0.613467,
2004-07-27, 00:35:00,VALID,917.499,VALID,0,VALID,98.0572,VALID,0.0339617,VALID,21.0039,VALID,18,VALID,0.651389,
2004-07-27, 00:36:00,VALID,917.524,VALID,0,VALID,97.8805,VALID,0.0679233,VALID,20.9883,VALID,9,VALID,0.536882,
2004-07-27, 00:37:00,VALID,917.522,VALID,0,VALID,97.897,VALID,0,VALID,20.9721,VALID,43,VALID,0.220881,
2004-07-27, 00:38:00,VALID,917.532,VALID,0,VALID,97.9085,VALID,-0.0509425,VALID,20.9761,VALID,81,VALID,0.355923,
2004-07-27, 00:39:01,VALID,917.532,VALID,0,VALID,97.7838,VALID,-0.0679233,VALID,20.9734,VALID,39,VALID,0.833705,
2004-07-27, 00:40:01,VALID,917.557,VALID,0,VALID,97.6974,VALID,-0.0169808,VALID,20.9503,VALID,8,VALID,1.10919,
2004-07-27, 00:41:01,VALID,917.56,VALID,0,VALID,97.6796,VALID,-0.0169808,VALID,20.9476,VALID,6,VALID,0.861192,
2004-07-27, 00:42:01,VALID,917.548,VALID,0,VALID,97.6605,VALID,-0.0509425,VALID,20.925,VALID,19,VALID,0.850632,
2004-07-27, 00:43:01,VALID,917.55,VALID,0,VALID,97.7139,VALID,-0.0339617,VALID,20.921,VALID,17,VALID,1.14335,
2004-07-27, 00:44:01,VALID,917.544,VALID,0,VALID,97.733,VALID,0,VALID,20.9145,VALID,14,VALID,0.845526,
2004-07-27, 00:45:00,VALID,917.532,VALID,0,VALID,97.8309,VALID,-0.0169808,VALID,20.9153,VALID,14,VALID,0.355564,
2004-07-27, 00:46:00,VALID,917.522,VALID,0,VALID,97.8652,VALID,-0.0509425,VALID,20.918,VALID,14,VALID,0.587573,
2004-07-27, 00:47:00,VALID,917.517,VALID,0,VALID,97.8271,VALID,-0.0339617,VALID,20.9306,VALID,8,VALID,0.810138,
2004-07-27, 00:48:01,VALID,917.506,VALID,0,VALID,97.761,VALID,-0.0339617,VALID,20.9344,VALID,22,VALID,0.943677,
2004-07-27, 00:49:01,VALID,917.485,VALID,0,VALID,97.7546,VALID,-0.0169808,VALID,20.911,VALID,12,VALID,0.628348,
2004-07-27, 00:50:01,VALID,917.461,VALID,0,VALID,97.7292,VALID,-0.0169808,VALID,20.9113,VALID,3,VALID,0.808061,
2004-07-27, 00:51:01,VALID,917.439,VALID,0,VALID,97.7317,VALID,-0.0339617,VALID,20.9215,VALID,23,VALID,1.15309,
2004-07-27, 00:52:01,VALID,917.415,VALID,0,VALID,97.7877,VALID,-0.0169808,VALID,20.9247,VALID,24,VALID,0.836846,
2004-07-27, 00:53:01,VALID,917.395,VALID,0,VALID,97.78,VALID,-0.0339617,VALID,20.9215,VALID,19,VALID,0.720982,
2004-07-27, 00:54:01,VALID,917.382,VALID,0,VALID,97.822,VALID,-0.0339617,VALID,20.9217,VALID,12,VALID,0.448153,
2004-07-27, 00:55:01,VALID,917.37,VALID,0,VALID,97.8156,VALID,-0.0339617,VALID,20.918,VALID,14,VALID,0.689732,
2004-07-27, 00:56:01,VALID,917.341,VALID,0,VALID,97.7864,VALID,0,VALID,20.9212,VALID,16,VALID,0.533482,
2004-07-27, 00:57:00,VALID,917.336,VALID,0,VALID,97.8118,VALID,0,VALID,20.922,VALID,33,VALID,0.829723,
2004-07-27, 00:58:01,VALID,917.307,VALID,0,VALID,97.8423,VALID,-0.0339617,VALID,20.922,VALID,32,VALID,0.888368,
2004-07-27, 00:59:00,VALID,917.305,VALID,0,VALID,97.9059,VALID,-0.0849042,VALID,20.9183,VALID,37,VALID,0.351385,
2004-07-27, 01:00:01,VALID,917.294,VALID,0,VALID,97.9161,VALID,0,VALID,20.9344,VALID,37,VALID,0.247159,
2004-07-27, 01:01:01,VALID,917.289,VALID,0,VALID,97.8423,VALID,-0.0169808,VALID,20.9446,VALID,36,VALID,0.582961,
2004-07-27, 01:02:01,VALID,917.292,VALID,0,VALID,97.8373,VALID,-0.0339617,VALID,20.9306,VALID,20,VALID,0.73819,
2004-07-27, 01:03:01,VALID,917.309,VALID,0,VALID,97.8462,VALID,-0.0339617,VALID,20.9444,VALID,22,VALID,0.0491832,
2004-07-27, 01:04:01,VALID,917.321,VALID,0,VALID,97.8296,VALID,0,VALID,20.9506,VALID,22,VALID,0.355078,
2004-07-27, 01:05:01,VALID,917.334,VALID,0,VALID,97.7826,VALID,-0.0509425,VALID,20.9239,VALID,21,VALID,0.677557,
2004-07-27, 01:06:01,VALID,917.344,VALID,0,VALID,97.7495,VALID,-0.0339617,VALID,20.9309,VALID,360,VALID,0.557231,
2004-07-27, 01:07:01,VALID,917.367,VALID,0,VALID,97.6134,VALID,0,VALID,20.9118,VALID,19,VALID,0.65407,
2004-07-27, 01:08:01,VALID,917.343,VALID,0,VALID,97.6872,VALID,-0.0169808,VALID,20.8989,VALID,15,VALID,0.86109,
2004-07-27, 01:09:01,VALID,917.349,VALID,0,VALID,97.7597,VALID,-0.0169808,VALID,20.8959,VALID,16,VALID,0.791921,
2004-07-27, 01:10:01,VALID,917.349,VALID,0,VALID,97.7864,VALID,-0.0169808,VALID,20.886,VALID,15,VALID,0.21218,
2004-07-27, 01:11:01,VALID,917.362,VALID,0,VALID,97.8678,VALID,0,VALID,20.9056,VALID,11,VALID,0.0833333,
2004-07-27, 01:12:01,VALID,917.369,VALID,0,VALID,97.7025,VALID,-0.0509425,VALID,20.8919,VALID,8,VALID,0.161086,
2004-07-27, 01:13:01,VALID,917.364,VALID,0,VALID,97.574,VALID,-0.0509425,VALID,20.8924,VALID,8,VALID,0.009375,
2004-07-27, 01:14:01,VALID,917.379,VALID,0,VALID,97.6185,VALID,-0.0509425,VALID,20.8929,VALID,8,VALID,0.651989,
2004-07-27, 01:15:01,VALID,917.374,VALID,0,VALID,97.6732,VALID,0,VALID,20.8817,VALID,8,VALID,0.420422,
2004-07-27, 01:16:01,VALID,917.373,VALID,0,VALID,97.6516,VALID,-0.0169808,VALID,20.9021,VALID,12,VALID,0.892912,
2004-07-27, 01:17:01,VALID,917.363,VALID,0,VALID,97.5511,VALID,-0.0339617,VALID,20.886,VALID,13,VALID,0.797828,
2004-07-27, 01:18:01,VALID,917.341,VALID,0,VALID,97.5613,VALID,0,VALID,20.8757,VALID,13,VALID,0.666466,
2004-07-27, 01:19:01,VALID,917.318,VALID,0,VALID,97.5702,VALID,0,VALID,20.8822,VALID,9,VALID,0.945494,
2004-07-27, 01:20:01,VALID,917.299,VALID,0,VALID,97.4609,VALID,-0.0339617,VALID,20.8531,VALID,4,VALID,0.81936,
2004-07-27, 01:21:01,VALID,917.278,VALID,0,VALID,97.5079,VALID,-0.0339617,VALID,20.8308,VALID,13,VALID,0.541159,
2004-07-27, 01:22:01,VALID,917.261,VALID,0,VALID,97.5143,VALID,0,VALID,20.8017,VALID,340,VALID,1.25595,
2004-07-27, 01:23:01,VALID,917.24,VALID,0,VALID,97.5206,VALID,-0.0169808,VALID,20.7729,VALID,344,VALID,1.19895,
2004-07-27, 01:24:00,VALID,917.209,VALID,0,VALID,97.5867,VALID,-0.0679233,VALID,20.753,VALID,15,VALID,1.2358,
2004-07-27, 01:25:00,VALID,917.193,VALID,0,VALID,97.6885,VALID,-0.0169808,VALID,20.7471,VALID,14,VALID,1.17685,
2004-07-27, 01:26:00,VALID,917.18,VALID,0,VALID,97.78,VALID,0,VALID,20.7694,VALID,15,VALID,0.901786,
2004-07-27, 01:27:00,VALID,917.15,VALID,0,VALID,97.7381,VALID,-0.0169808,VALID,20.7498,VALID,12,VALID,0.928668,
2004-07-27, 01:28:00,VALID,917.128,VALID,0,VALID,97.822,VALID,0,VALID,20.7473,VALID,14,VALID,1.19459,
2004-07-27, 01:29:00,VALID,917.107,VALID,0,VALID,97.9186,VALID,0,VALID,20.7341,VALID,19,VALID,1.15758,
2004-07-27, 01:30:00,VALID,917.063,VALID,0,VALID,98.0178,VALID,-0.0509425,VALID,20.7344,VALID,17,VALID,0.85902,
2004-07-27, 01:31:00,VALID,917.028,VALID,0,VALID,97.9949,VALID,-0.0339617,VALID,20.7148,VALID,357,VALID,1.18979,
2004-07-27, 01:32:00,VALID,917.009,VALID,0,VALID,98.0356,VALID,-0.0169808,VALID,20.6752,VALID,353,VALID,1.26953,
2004-07-27, 01:33:00,VALID,916.988,VALID,0,VALID,98.1488,VALID,-0.0169808,VALID,20.6534,VALID,18,VALID,1.18241,
2004-07-27, 01:34:00,VALID,916.968,VALID,0,VALID,98.3052,VALID,0,VALID,20.6437,VALID,24,VALID,0.752096,
2004-07-27, 01:35:00,VALID,916.978,VALID,0,VALID,98.3929,VALID,-0.0339617,VALID,20.6343,VALID,16,VALID,0.919212,
2004-07-27, 01:36:00,VALID,916.978,VALID,0,VALID,98.4146,VALID,-0.0339617,VALID,20.6243,VALID,16,VALID,0.497582,
2004-07-27, 01:37:00,VALID,916.98,VALID,0,VALID,98.454,VALID,-0.0169808,VALID,20.6313,VALID,16,VALID,0.0260417,
2004-07-27, 01:38:00,VALID,916.973,VALID,0,VALID,98.4667,VALID,-0.0339617,VALID,20.6345,VALID,16,VALID,0.249306,
2004-07-27, 01:39:00,VALID,916.97,VALID,0,VALID,98.4998,VALID,-0.0339617,VALID,20.6308,VALID,16,VALID,0.621094,
2004-07-27, 01:40:00,VALID,916.952,VALID,0,VALID,98.5621,VALID,-0.0679233,VALID,20.6343,VALID,15,VALID,0.316667,
2004-07-27, 01:41:00,VALID,916.944,VALID,0,VALID,98.3802,VALID,-0.0849042,VALID,20.6248,VALID,10,VALID,0.954459,
2004-07-27, 01:42:00,VALID,916.93,VALID,0,VALID,98.351,VALID,-0.0679233,VALID,20.6117,VALID,16,VALID,1.04863,
2004-07-27, 01:43:00,VALID,916.908,VALID,0,VALID,98.3205,VALID,-0.0679233,VALID,20.6052,VALID,17,VALID,1.00305,
2004-07-27, 01:44:00,VALID,916.89,VALID,0,VALID,98.4514,VALID,-0.0849042,VALID,20.6055,VALID,14,VALID,1.0089,
2004-07-27, 01:45:00,VALID,916.874,VALID,0,VALID,98.5048,VALID,-0.101885,VALID,20.6092,VALID,9,VALID,0.867365,
2004-07-27, 01:46:00,VALID,916.848,VALID,0,VALID,98.3637,VALID,-0.101885,VALID,20.5697,VALID,8,VALID,1.02961,
2004-07-27, 01:47:00,VALID,916.845,VALID,0,VALID,98.4781,VALID,-0.0849042,VALID,20.5836,VALID,6,VALID,0.935454,
2004-07-27, 01:48:00,VALID,916.836,VALID,0,VALID,98.5036,VALID,-0.0849042,VALID,20.5764,VALID,355,VALID,0.833576,
2004-07-27, 01:49:00,VALID,916.838,VALID,0,VALID,98.5163,VALID,-0.101885,VALID,20.5675,VALID,3,VALID,0.568598,
2004-07-27, 01:50:00,VALID,916.852,VALID,0,VALID,98.5315,VALID,-0.0849042,VALID,20.5538,VALID,8,VALID,0.686928,
2004-07-27, 01:51:00,VALID,916.862,VALID,0,VALID,98.5379,VALID,-0.0679233,VALID,20.5506,VALID,17,VALID,0.853016,
2004-07-27, 01:52:00,VALID,916.872,VALID,0,VALID,98.5544,VALID,-0.0849042,VALID,20.5374,VALID,13,VALID,0.75093,
2004-07-27, 01:53:00,VALID,916.87,VALID,0,VALID,98.5176,VALID,0.0169808,VALID,20.5336,VALID,344,VALID,0.588481,
2004-07-27, 01:54:00,VALID,916.874,VALID,0,VALID,98.5481,VALID,0.0169808,VALID,20.5105,VALID,11,VALID,0.555959,
2004-07-27, 01:55:00,VALID,916.885,VALID,0,VALID,98.6447,VALID,0.0339617,VALID,20.5232,VALID,27,VALID,0.845508,
2004-07-27, 01:56:00,VALID,916.892,VALID,0,VALID,98.5773,VALID,0.0169808,VALID,20.5331,VALID,12,VALID,1.02405,
2004-07-27, 01:57:00,VALID,916.905,VALID,0,VALID,98.4629,VALID,0.0339617,VALID,20.5103,VALID,23,VALID,1.11737,
2004-07-27, 01:58:00,VALID,916.925,VALID,0,VALID,98.4489,VALID,0.0509425,VALID,20.521,VALID,10,VALID,1.09807,
2004-07-27, 01:59:00,VALID,916.94,VALID,0,VALID,98.4298,VALID,0,VALID,20.5075,VALID,11,VALID,1.22293,
2004-07-27, 02:00:00,VALID,916.963,VALID,0,VALID,98.4476,VALID,0.0169808,VALID,20.4951,VALID,2,VALID,1.01022,
2004-07-27, 02:01:00,VALID,916.975,VALID,0,VALID,98.5328,VALID,0,VALID,20.4849,VALID,9,VALID,0.732515,
2004-07-27, 02:02:00,VALID,916.989,VALID,0,VALID,98.5697,VALID,0.0339617,VALID,20.4949,VALID,12,VALID,0.668341,
2004-07-27, 02:03:00,VALID,917.001,VALID,0,VALID,98.5405,VALID,0.0169808,VALID,20.4844,VALID,9,VALID,0.757086,
2004-07-27, 02:04:00,VALID,916.991,VALID,0,VALID,98.5099,VALID,0.0169808,VALID,20.4882,VALID,12,VALID,0.681424,
2004-07-27, 02:05:00,VALID,916.981,VALID,0,VALID,98.4858,VALID,0.0169808,VALID,20.4879,VALID,18,VALID,0.769336,
2004-07-27, 02:06:00,VALID,916.967,VALID,0,VALID,98.4476,VALID,0.0339617,VALID,20.4814,VALID,11,VALID,0.852679,
2004-07-27, 02:07:00,VALID,916.948,VALID,0,VALID,98.4731,VALID,0,VALID,20.4785,VALID,358,VALID,0.604048,
2004-07-27, 02:08:00,VALID,916.937,VALID,0,VALID,98.4082,VALID,0.0169808,VALID,20.4785,VALID,356,VALID,0.665972,
2004-07-27, 02:09:00,VALID,916.914,VALID,0,VALID,98.2709,VALID,0.0339617,VALID,20.4683,VALID,342,VALID,0.697917,
2004-07-27, 02:10:00,VALID,916.866,VALID,0,VALID,98.1412,VALID,0.0509425,VALID,20.4653,VALID,332,VALID,0.265625,
2004-07-27, 02:11:00,VALID,916.831,VALID,0,VALID,98.2404,VALID,0.0509425,VALID,20.4621,VALID,334,VALID,0.164063,
2004-07-27, 02:12:00,VALID,916.802,VALID,0,VALID,98.2569,VALID,0.0169808,VALID,20.4685,VALID,357,VALID,0.28159,
2004-07-27, 02:13:00,VALID,916.769,VALID,0,VALID,98.2302,VALID,0.0339617,VALID,20.4583,VALID,353,VALID,0.467862,
2004-07-27, 02:14:00,VALID,916.742,VALID,0,VALID,98.1844,VALID,0.0339617,VALID,20.4594,VALID,61,VALID,0.400343,
2004-07-27, 02:15:00,VALID,916.734,VALID,0,VALID,98.2683,VALID,0.0339617,VALID,20.4427,VALID,71,VALID,0.224235,
2004-07-27, 02:16:00,VALID,916.712,VALID,0,VALID,98.3294,VALID,0,VALID,20.4556,VALID,41,VALID,0.456395,
2004-07-27, 02:17:00,VALID,916.698,VALID,0,VALID,98.3027,VALID,0.0169808,VALID,20.4397,VALID,10,VALID,0.451736,
2004-07-27, 02:18:00,VALID,916.677,VALID,0,VALID,98.2238,VALID,0.0169808,VALID,20.4397,VALID,357,VALID,0.700707,
2004-07-27, 02:19:00,VALID,916.669,VALID,0,VALID,97.9581,VALID,0.0339617,VALID,20.4002,VALID,358,VALID,0.604992,
2004-07-27, 02:20:00,VALID,916.648,VALID,0,VALID,97.8958,VALID,0.0169808,VALID,20.388,VALID,341,VALID,0.594658,
2004-07-27, 02:21:00,VALID,916.638,VALID,0,VALID,97.9225,VALID,0.0169808,VALID,20.3813,VALID,342,VALID,0.200174,
2004-07-27, 02:22:00,VALID,916.63,VALID,0,VALID,97.9174,VALID,0,VALID,20.398,VALID,345,VALID,0.360764,
2004-07-27, 02:23:00,VALID,916.6,VALID,0,VALID,97.8601,VALID,-0.0679233,VALID,20.3632,VALID,345,VALID,0.240234,
2004-07-27, 02:24:00,VALID,916.593,VALID,0,VALID,97.8322,VALID,-0.101885,VALID,20.3568,VALID,345,VALID,0.00990854,
2004-07-27, 02:25:00,VALID,916.574,VALID,0,VALID,97.8309,VALID,-0.0679233,VALID,20.364,VALID,345,VALID,0.0694247,
2004-07-27, 02:26:00,VALID,916.569,VALID,0,VALID,97.7317,VALID,-0.0679233,VALID,20.3511,VALID,351,VALID,0.485119,
2004-07-27, 02:27:00,VALID,916.562,VALID,0,VALID,97.6274,VALID,0.0169808,VALID,20.3299,VALID,19,VALID,0.557884,
2004-07-27, 02:28:00,VALID,916.549,VALID,0,VALID,97.6007,VALID,0.0339617,VALID,20.3269,VALID,19,VALID,0.637355,
2004-07-27, 02:29:00,VALID,916.562,VALID,0,VALID,97.574,VALID,0.0169808,VALID,20.3133,VALID,28,VALID,0.56436,
2004-07-27, 02:30:00,VALID,916.54,VALID,0,VALID,97.4125,VALID,0.0509425,VALID,20.2936,VALID,18,VALID,0.902778,
2004-07-27, 02:31:00,VALID,916.526,VALID,0,VALID,97.2739,VALID,0.0509425,VALID,20.2618,VALID,9,VALID,0.675223,
2004-07-27, 02:32:00,VALID,916.509,VALID,0,VALID,97.3312,VALID,0.0509425,VALID,20.233,VALID,349,VALID,0.697049,
2004-07-27, 02:33:00,VALID,916.493,VALID,0,VALID,97.4087,VALID,0.0849042,VALID,20.2174,VALID,354,VALID,0.599466,
2004-07-27, 02:34:00,VALID,916.475,VALID,0,VALID,97.4049,VALID,0.0679233,VALID,20.1843,VALID,6,VALID,0.670632,
2004-07-27, 02:35:00,VALID,916.47,VALID,0,VALID,97.4113,VALID,0.0339617,VALID,20.165,VALID,3,VALID,0.409268,
2004-07-27, 02:36:00,VALID,916.447,VALID,0,VALID,97.4316,VALID,0.0169808,VALID,20.1426,VALID,2,VALID,0.598656,
2004-07-27, 02:37:00,VALID,916.44,VALID,0,VALID,97.4443,VALID,0.0509425,VALID,20.1262,VALID,6,VALID,0.725868,
2004-07-27, 02:38:00,VALID,916.434,VALID,0,VALID,97.4774,VALID,-0.0509425,VALID,20.0957,VALID,13,VALID,0.688194,
2004-07-27, 02:39:00,VALID,916.427,VALID,0,VALID,97.4914,VALID,-0.101885,VALID,20.0801,VALID,17,VALID,1.07292,
2004-07-27, 02:40:00,VALID,916.421,VALID,0,VALID,97.4736,VALID,-0.0679233,VALID,20.0873,VALID,22,VALID,0.938244,
2004-07-27, 02:41:00,VALID,916.4,VALID,0,VALID,97.4176,VALID,-0.0849042,VALID,20.0736,VALID,15,VALID,1.10683,
2004-07-27, 02:42:00,VALID,916.397,VALID,0,VALID,97.3337,VALID,-0.101885,VALID,20.0637,VALID,8,VALID,0.968936,
2004-07-27, 02:43:00,VALID,916.373,VALID,0,VALID,97.3337,VALID,-0.101885,VALID,20.0609,VALID,6,VALID,0.870028,
2004-07-27, 02:44:00,VALID,916.344,VALID,0,VALID,97.3426,VALID,-0.0679233,VALID,20.0569,VALID,3,VALID,0.962891,
2004-07-27, 02:45:00,VALID,916.316,VALID,0,VALID,97.2688,VALID,-0.0849042,VALID,20.0736,VALID,17,VALID,0.689062,
2004-07-27, 02:46:00,VALID,916.292,VALID,0,VALID,97.1836,VALID,-0.0849042,VALID,20.0639,VALID,11,VALID,0.723656,
2004-07-27, 02:47:00,VALID,916.274,VALID,0,VALID,97.1493,VALID,-0.0679233,VALID,20.0478,VALID,6,VALID,0.723011,
2004-07-27, 02:48:00,VALID,916.258,VALID,0,VALID,97.1569,VALID,-0.101885,VALID,20.0485,VALID,6,VALID,0.422222,
2004-07-27, 02:49:00,VALID,916.228,VALID,0,VALID,97.2243,VALID,-0.0679233,VALID,20.0351,VALID,6,VALID,0.360283,
2004-07-27, 02:50:00,VALID,916.2,VALID,0,VALID,97.2269,VALID,-0.0849042,VALID,20.0346,VALID,6,VALID,0.510547,
2004-07-27, 02:51:00,VALID,916.193,VALID,0,VALID,97.1646,VALID,-0.0849042,VALID,20.0222,VALID,12,VALID,0.526042,
2004-07-27, 02:52:00,VALID,916.169,VALID,0,VALID,97.0539,VALID,-0.0509425,VALID,20.006,VALID,14,VALID,0.3621,
2004-07-27, 02:53:00,VALID,916.156,VALID,0,VALID,97.0323,VALID,-0.0849042,VALID,19.977,VALID,1,VALID,0.734553,
2004-07-27, 02:54:00,VALID,916.135,VALID,0,VALID,97.0539,VALID,-0.0849042,VALID,19.974,VALID,352,VALID,0.520389,
2004-07-27, 02:55:00,VALID,916.12,VALID,0,VALID,96.9713,VALID,-0.0849042,VALID,19.964,VALID,7,VALID,0.796131,
2004-07-27, 02:56:00,VALID,916.1,VALID,0,VALID,96.8022,VALID,-0.0679233,VALID,19.9479,VALID,15,VALID,0.609189,
2004-07-27, 02:57:00,VALID,916.091,VALID,0,VALID,96.8073,VALID,-0.0679233,VALID,19.9377,VALID,357,VALID,0.645198,
2004-07-27, 02:58:00,VALID,916.093,VALID,0,VALID,96.9649,VALID,-0.0849042,VALID,19.9377,VALID,2,VALID,0.80593,
2004-07-27, 02:59:00,VALID,916.089,VALID,0,VALID,96.8136,VALID,-0.0849042,VALID,19.9516,VALID,8,VALID,0.945845,
2004-07-27, 03:00:00,VALID,916.098,VALID,0,VALID,96.731,VALID,-0.0849042,VALID,19.9347,VALID,8,VALID,0.56441,
2004-07-27, 03:01:00,VALID,916.12,VALID,0,VALID,96.8289,VALID,-0.101885,VALID,19.932,VALID,355,VALID,0.758721,
2004-07-27, 03:02:00,VALID,916.138,VALID,0,VALID,96.9128,VALID,-0.101885,VALID,19.9285,VALID,351,VALID,0.616443,
2004-07-27, 03:03:00,VALID,916.152,VALID,0,VALID,96.8708,VALID,-0.101885,VALID,19.9193,VALID,355,VALID,0.665516,
2004-07-27, 03:04:00,VALID,916.168,VALID,0,VALID,96.8289,VALID,-0.101885,VALID,19.8967,VALID,6,VALID,0.789063,
2004-07-27, 03:05:00,VALID,916.173,VALID,0,VALID,96.8861,VALID,-0.101885,VALID,19.8905,VALID,17,VALID,0.99721,
2004-07-27, 03:06:00,VALID,916.185,VALID,0,VALID,96.8301,VALID,-0.0849042,VALID,19.8706,VALID,21,VALID,0.623972,
2004-07-27, 03:07:00,VALID,916.175,VALID,0,VALID,96.8085,VALID,-0.101885,VALID,19.8711,VALID,19,VALID,0.621449,
2004-07-27, 03:08:00,VALID,916.19,VALID,0,VALID,96.8429,VALID,0.0169808,VALID,19.8565,VALID,17,VALID,0.668478,
2004-07-27, 03:09:00,VALID,916.182,VALID,0,VALID,96.8365,VALID,0,VALID,19.8532,VALID,26,VALID,0.627858,
2004-07-27, 03:10:00,VALID,916.158,VALID,0,VALID,96.7208,VALID,0,VALID,19.8503,VALID,26,VALID,0.692116,
2004-07-27, 03:11:00,VALID,916.154,VALID,0,VALID,96.6903,VALID,0,VALID,19.8406,VALID,35,VALID,0.753018,
2004-07-27, 03:12:00,VALID,916.14,VALID,0,VALID,96.6903,VALID,0,VALID,19.8341,VALID,38,VALID,0.776172,
2004-07-27, 03:13:00,VALID,916.135,VALID,0,VALID,96.6661,VALID,0,VALID,19.8147,VALID,41,VALID,0.797965,
2004-07-27, 03:14:00,VALID,916.131,VALID,0,VALID,96.6076,VALID,0,VALID,19.7956,VALID,31,VALID,0.619186,
2004-07-27, 03:15:00,VALID,916.125,VALID,0,VALID,96.6903,VALID,0,VALID,19.7792,VALID,27,VALID,0.61942,
2004-07-27, 03:16:00,VALID,916.13,VALID,0,VALID,96.8034,VALID,0,VALID,19.7561,VALID,10,VALID,0.488281,
2004-07-27, 03:17:00,VALID,916.122,VALID,0,VALID,97.0629,VALID,0,VALID,19.77,VALID,5,VALID,0.541424,
2004-07-27, 03:18:00,VALID,916.106,VALID,0,VALID,97.2142,VALID,0,VALID,19.769,VALID,9,VALID,0.861421,
2004-07-27, 03:19:00,VALID,916.086,VALID,0,VALID,97.0425,VALID,0,VALID,19.7663,VALID,16,VALID,1.15606,
2004-07-27, 03:20:00,VALID,916.074,VALID,0,VALID,96.9459,VALID,0,VALID,19.7402,VALID,12,VALID,1.13032,
2004-07-27, 03:21:00,VALID,916.072,VALID,0,VALID,96.8009,VALID,0.0339617,VALID,19.7045,VALID,6,VALID,1.14901,
2004-07-27, 03:22:00,VALID,916.051,VALID,0,VALID,97.0997,VALID,0,VALID,19.705,VALID,12,VALID,1.32012,
2004-07-27, 03:23:00,VALID,916.045,VALID,0,VALID,97.012,VALID,-0.0169808,VALID,19.7181,VALID,16,VALID,1.06994,
2004-07-27, 03:24:00,VALID,916.041,VALID,0,VALID,96.7767,VALID,-0.0339617,VALID,19.7082,VALID,13,VALID,1.19331,
2004-07-27, 03:25:00,VALID,916.038,VALID,0,VALID,96.6928,VALID,0,VALID,19.7211,VALID,353,VALID,1.00746,
2004-07-27, 03:26:00,VALID,916.041,VALID,0,VALID,96.6674,VALID,0,VALID,19.7472,VALID,2,VALID,0.67569,
2004-07-27, 03:27:00,VALID,916.039,VALID,0,VALID,96.5657,VALID,-0.0169808,VALID,19.7666,VALID,8,VALID,0.799479,
2004-07-27, 03:28:00,VALID,916.039,VALID,0,VALID,96.3571,VALID,-0.0169808,VALID,19.776,VALID,9,VALID,0.72619,
2004-07-27, 03:29:00,VALID,916.027,VALID,0,VALID,96.1002,VALID,0,VALID,19.7926,VALID,357,VALID,1.20198,
2004-07-27, 03:30:00,VALID,916.014,VALID,0,VALID,95.8879,VALID,-0.0169808,VALID,19.8016,VALID,3,VALID,1.05243,
2004-07-27, 03:31:00,VALID,916.008,VALID,0,VALID,95.7709,VALID,0,VALID,19.8314,VALID,8,VALID,1.05357,
2004-07-27, 03:32:00,VALID,915.985,VALID,0,VALID,95.603,VALID,0,VALID,19.8309,VALID,10,VALID,0.919829,
2004-07-27, 03:33:00,VALID,915.987,VALID,0,VALID,95.514,VALID,0,VALID,19.8376,VALID,13,VALID,0.433254,